Regional Weather Roundup
Issued by NWS Little Rock, AR

Home | Current Version | Previous Version | Text Only | Print | Product List | Glossary Off
Versions: 1 2 3 4 5 6 7 8 9 10 11 12 13 14 15 16 17 18 19 20 21 22 23 24 25 26 27

000
ASUS44 KLZK 250105
RWRLZK

WEATHER ROUNDUP FOR ARKANSAS
NATIONAL WEATHER SERVICE LITTLE ROCK AR
800 PM CDT THU APR 24 2014

NOTE: "FAIR" INDICATES FEW OR NO CLOUDS BELOW 12,000 FEET WITH NO
SIGNIFICANT WEATHER AND/OR OBSTRUCTIONS TO VISIBILITY.

ARZ001-003-010-029-250200-
NORTHWEST ARKANSAS

CITY           SKY/WX    TMP DP  RH WIND       PRES   REMARKS
FAYETTEVILLE   CLOUDY    59  52  77 W12G24    29.82R
FORT SMITH     CLEAR     67  48  50 W23G32    29.81R
HARRISON       LGT RAIN  59  55  87 W13G25    29.74R
BENTONVILLE    CLOUDY    59  50  72 NW12G17   29.83R
ROGERS         CLOUDY    58  51  78 NW14G25   29.82R
SILOAM SPGS    CLOUDY    59  46  63 NW17      29.85R
HIGHFILL       CLOUDY    58  51  78 NW14G22   29.81R
SPRINGDALE     LGT RAIN  59  52  77 NW17G29   29.83R
$$

ARZ004-005-016-250200-
NORTH CENTRAL ARKANSAS

CITY           SKY/WX    TMP DP  RH WIND       PRES   REMARKS
BATESVILLE     CLOUDY    64  61  88 W6        29.67R
FLIPPIN        MOCLDY    64  52  63 W15G31    29.70R
MTN HOME       MOCLDY    64  55  72 W10G25    29.68R
$$

ARZ040-041-250200-
WEST CENTRAL ARKANSAS

CITY           SKY/WX    TMP DP  RH WIND       PRES   REMARKS
MENA           CLEAR     64  55  72 CALM      29.83R
MOUNT IDA      CLEAR     61  59  93 CALM      29.77R
$$

ARZ009-017-025-026-028-250200-
NORTHEAST ARKANSAS

CITY           SKY/WX    TMP DP  RH WIND       PRES   REMARKS
CORNING        FAIR      63  63 100 SE9       29.67F
JONESBORO      CLOUDY    64  63  94 SE12      29.67F
NEWPORT        CLOUDY    66  66 100 S14       29.66R
WALNUT RIDGE   CLOUDY    64  59  82 S9        29.65F
BLYTHEVILLE    LGT RAIN  67  62  84 SW15G26   29.71R
$$

ARZ022-023-033-042-044-250200-
CENTRAL ARKANSAS

CITY           SKY/WX    TMP DP  RH WIND       PRES   REMARKS
LITTLE ROCK    CLOUDY    66  61  84 W12       29.75R
N LITTLE ROCK  PTCLDY    64  60  86 W9G18     29.75R
JACKSONVILLE   CLOUDY    67  60  77 SW17      29.73R
SEARCY         CLOUDY    68  66  94 SW10      29.70R
HOT SPRINGS    PTCLDY    62  59  90 CALM      29.79R
RUSSELLVILLE   PTCLDY    64  57  78 VRB5      29.76R
CLINTON        FAIR      63  57  82 SW5       29.72R
$$

ARZ036-250200-
EAST ARKANSAS

CITY           SKY/WX    TMP DP  RH WIND       PRES   REMARKS
WEST MEMPHIS   LGT RAIN  64  64 100 CALM      29.73S
$$

ARZ050-053-066-070-073-250200-
SOUTHWEST ARKANSAS

CITY           SKY/WX    TMP DP  RH WIND       PRES   REMARKS
ARKADELPHIA    FAIR      66  60  81 NW8       29.79R
CAMDEN         PTCLDY    72  66  83 MISG      29.75R
TEXARKANA      PTCLDY    76  53  44 W12       29.80R
EL DORADO      MOCLDY    70  68  93 S6        29.77S
DE QUEEN       LGT RAIN  72  50  45 NW7       29.79R
$$

ARZ056-057-069-250200-
SOUTHEAST ARKANSAS

CITY           SKY/WX    TMP DP  RH WIND       PRES   REMARKS
PINE BLUFF     TSTM      63  61  94 SW12      29.76R FOG
STUTTGART      CLOUDY    70  64  83 S14       29.71F
MONTICELLO     CLOUDY    69  67  93 SW6       29.77R

$$





USA.gov is the U.S. government's official web portal to all federal, state and local government web resources and services.